When you browse on this site, cookies collect data to enhance your experience and personalize the content and advertising you see.
Visit our Privacy Policy to learn more. By continuing to use the site, you agree to this use of cookies and data.
  • In France
  • List of Countries
  • For 7 days
  • Water Temperature
  • Weather Map
  • Weather Widgets
  • user-avatar
    Login

    Hourly Weather Mbandaka

    Today, 5 June, Friday

    Time Temperature Precipitation Wind Pressure Humidity
    00:00 +25°C° 0 mm 1 mps 732 mmHg 92%
    01:00 +24°C° 0 mm 1 mps 731 mmHg 93%
    02:00 +24°C° 0.1 mm 1 mps 731 mmHg 93%
    03:00 +24°C° 0.1 mm 1 mps 731 mmHg 93%
    04:00 +24°C° 0.1 mm 1 mps 731 mmHg 93%
    05:00 +22°C° 0 mm 0 mps 732 mmHg 92%
    06:00 +22°C° 0 mm 0 mps 732 mmHg 91%
    07:00 +23°C° 0 mm 0 mps 733 mmHg 88%
    08:00 +26°C° 0 mm 0 mps 733 mmHg 79%
    09:00 +28°C° 0 mm 0 mps 733 mmHg 69%
    10:00 +31°C° 0 mm 0 mps 733 mmHg 60%
    11:00 +31°C° 0 mm 0 mps 733 mmHg 56%
    12:00 +34°C° 0 mm 1 mps 732 mmHg 53%
    13:00 +35°C° 0 mm 1 mps 732 mmHg 49%
    14:00 +34°C° 0.2 mm 1 mps 731 mmHg 52%
    15:00 +33°C° 0.2 mm 1 mps 730 mmHg 55%
    16:00 +33°C° 0.2 mm 1 mps 730 mmHg 58%
    17:00 +29°C° 0.1 mm 0 mps 730 mmHg 63%
    18:00 +27°C° 0.1 mm 0 mps 731 mmHg 69%
    19:00 +25°C° 0.1 mm 0 mps 731 mmHg 75%
    20:00 +25°C° 0 mm 0 mps 731 mmHg 78%
    21:00 +26°C° 0 mm 1 mps 732 mmHg 81%
    22:00 +26°C° 0 mm 1 mps 732 mmHg 84%
    23:00 +25°C° 0 mm 1 mps 732 mmHg 86%

    Tomorrow, 6 June, Saturday

    Time Temperature Precipitation Wind Pressure Humidity
    00:00 +23°C° 0 mm 0 mps 732 mmHg 87%
    01:00 +22°C° 0 mm 0 mps 732 mmHg 89%
    02:00 +22°C° 0 mm 0 mps 732 mmHg 89%
    03:00 +24°C° 0 mm 1 mps 732 mmHg 89%
    04:00 +24°C° 0 mm 1 mps 731 mmHg 90%
    05:00 +24°C° 0 mm 1 mps 732 mmHg 88%
    06:00 +25°C° 0 mm 1 mps 733 mmHg 87%
    07:00 +25°C° 0 mm 1 mps 733 mmHg 85%
    08:00 +28°C° 0 mm 1 mps 733 mmHg 77%
    09:00 +30°C° 0 mm 1 mps 733 mmHg 68%
    10:00 +32°C° 0 mm 1 mps 733 mmHg 60%
    11:00 +33°C° 0 mm 1 mps 733 mmHg 55%
    12:00 +35°C° 0 mm 1 mps 732 mmHg 51%
    13:00 +36°C° 0 mm 1 mps 732 mmHg 46%
    14:00 +35°C° 0.2 mm 1 mps 731 mmHg 51%
    15:00 +33°C° 0.2 mm 1 mps 731 mmHg 55%
    16:00 +30°C° 0.2 mm 0 mps 730 mmHg 60%
    17:00 +28°C° 0.5 mm 0 mps 730 mmHg 67%
    18:00 +26°C° 0.5 mm 0 mps 730 mmHg 75%
    19:00 +24°C° 0.5 mm 0 mps 730 mmHg 82%
    20:00 +24°C° 0.7 mm 0 mps 730 mmHg 85%
    21:00 +25°C° 0.7 mm 1 mps 731 mmHg 88%
    22:00 +25°C° 0.7 mm 1 mps 731 mmHg 90%
    23:00 +25°C° 0.3 mm 1 mps 731 mmHg 91%

    Day after tomorrow, 7 June, Sunday

    Time Temperature Precipitation Wind Pressure Humidity
    00:00 +24°C° 0.3 mm 1 mps 731 mmHg 91%
    01:00 +22°C° 0.3 mm 0 mps 731 mmHg 92%
    02:00 +24°C° 0.2 mm 1 mps 731 mmHg 93%
    03:00 +24°C° 0.2 mm 1 mps 731 mmHg 93%
    04:00 +24°C° 0.2 mm 1 mps 731 mmHg 94%
    05:00 +24°C° 0.7 mm 1 mps 731 mmHg 94%
    06:00 +23°C° 0.7 mm 0 mps 732 mmHg 94%
    07:00 +23°C° 0.7 mm 0 mps 732 mmHg 94%
    08:00 +26°C° 0 mm 1 mps 732 mmHg 89%
    09:00 +27°C° 0 mm 1 mps 733 mmHg 84%
    10:00 +28°C° 0 mm 1 mps 733 mmHg 79%
    11:00 +29°C° 0.7 mm 1 mps 732 mmHg 75%
    12:00 +31°C° 0.7 mm 1 mps 732 mmHg 71%
    13:00 +32°C° 0.7 mm 1 mps 731 mmHg 67%
    14:00 +30°C° 1.6 mm 1 mps 731 mmHg 75%
    15:00 +28°C° 1.6 mm 1 mps 730 mmHg 82%
    16:00 +26°C° 1.6 mm 1 mps 730 mmHg 90%
    17:00 +26°C° 0 mm 1 mps 730 mmHg 91%
    18:00 +23°C° 0 mm 0 mps 730 mmHg 92%
    19:00 +23°C° 0 mm 0 mps 730 mmHg 93%
    20:00 +22°C° 0 mm 0 mps 731 mmHg 94%
    21:00 +24°C° 0 mm 1 mps 731 mmHg 95%
    22:00 +24°C° 0 mm 1 mps 731 mmHg 96%
    23:00 +24°C° 0 mm 1 mps 731 mmHg 95%

    8 June, Monday

    Time Temperature Precipitation Wind Pressure Humidity
    00:00 +21°C° 0 mm 0 mps 730 mmHg 94%
    01:00 +21°C° 0 mm 0 mps 730 mmHg 94%
    02:00 +21°C° 0 mm 0 mps 730 mmHg 94%
    03:00 +21°C° 0 mm 0 mps 730 mmHg 94%
    04:00 +21°C° 0 mm 0 mps 730 mmHg 94%
    05:00 +23°C° 0 mm 1 mps 731 mmHg 93%
    06:00 +24°C° 0 mm 1 mps 731 mmHg 92%
    07:00 +24°C° 0 mm 1 mps 732 mmHg 91%
    08:00 +26°C° 0.1 mm 1 mps 732 mmHg 83%
    09:00 +29°C° 0.1 mm 1 mps 732 mmHg 75%
    10:00 +31°C° 0.1 mm 2 mps 732 mmHg 67%
    11:00 +31°C° 1.3 mm 2 mps 732 mmHg 67%
    12:00 +31°C° 1.3 mm 2 mps 731 mmHg 66%
    13:00 +32°C° 1.3 mm 2 mps 730 mmHg 66%
    14:00 +32°C° 0.3 mm 1 mps 730 mmHg 65%
    15:00 +31°C° 0.3 mm 1 mps 729 mmHg 64%
    16:00 +31°C° 0.3 mm 1 mps 729 mmHg 63%
    17:00 +30°C° 0.5 mm 1 mps 729 mmHg 72%
    18:00 +28°C° 0.5 mm 1 mps 729 mmHg 80%
    19:00 +26°C° 0.5 mm 1 mps 730 mmHg 89%
    20:00 +25°C° 0.1 mm 1 mps 730 mmHg 90%
    21:00 +25°C° 0.1 mm 1 mps 730 mmHg 90%
    22:00 +24°C° 0.1 mm 1 mps 731 mmHg 91%
    23:00 +24°C° 0.7 mm 1 mps 731 mmHg 92%

    9 June, Tuesday

    Time Temperature Precipitation Wind Pressure Humidity
    00:00 +24°C° 0.7 mm 1 mps 731 mmHg 93%
    01:00 +24°C° 0.7 mm 1 mps 731 mmHg 93%
    02:00 +24°C° 0.8 mm 1 mps 731 mmHg 94%
    03:00 +23°C° 0.8 mm 1 mps 730 mmHg 95%
    04:00 +21°C° 0.8 mm 0 mps 730 mmHg 96%
    05:00 +23°C° 0.3 mm 1 mps 731 mmHg 96%
    06:00 +24°C° 0.3 mm 1 mps 731 mmHg 95%
    07:00 +24°C° 0.3 mm 1 mps 731 mmHg 95%
    08:00 +25°C° 0 mm 1 mps 732 mmHg 91%
    09:00 +25°C° 0 mm 1 mps 732 mmHg 88%
    10:00 +26°C° 0 mm 1 mps 733 mmHg 84%
    11:00 +28°C° 0.1 mm 1 mps 732 mmHg 76%
    12:00 +30°C° 0.1 mm 1 mps 731 mmHg 67%
    13:00 +32°C° 0.1 mm 1 mps 730 mmHg 58%
    14:00 +31°C° 0.3 mm 1 mps 730 mmHg 62%
    15:00 +30°C° 0.3 mm 1 mps 730 mmHg 66%
    16:00 +30°C° 0.3 mm 1 mps 729 mmHg 71%
    17:00 +28°C° 0.3 mm 1 mps 729 mmHg 77%
    18:00 +27°C° 0.3 mm 1 mps 730 mmHg 83%
    19:00 +23°C° 0.3 mm 0 mps 730 mmHg 89%
    20:00 +23°C° 0.3 mm 0 mps 730 mmHg 90%
    21:00 +23°C° 0.3 mm 0 mps 731 mmHg 91%
    22:00 +22°C° 0.3 mm 0 mps 731 mmHg 93%
    23:00 +22°C° 0.4 mm 0 mps 731 mmHg 93%

    10 June, Wednesday

    Time Temperature Precipitation Wind Pressure Humidity
    00:00 +22°C° 0.4 mm 0 mps 731 mmHg 94%
    01:00 +22°C° 0.4 mm 0 mps 731 mmHg 94%
    02:00 +22°C° 0 mm 0 mps 731 mmHg 94%
    03:00 +22°C° 0 mm 0 mps 731 mmHg 95%
    04:00 +22°C° 0 mm 0 mps 731 mmHg 95%
    05:00 +24°C° 0 mm 1 mps 731 mmHg 94%
    06:00 +24°C° 0 mm 1 mps 731 mmHg 93%
    07:00 +25°C° 0 mm 1 mps 732 mmHg 93%
    08:00 +27°C° 0 mm 1 mps 732 mmHg 84%
    09:00 +28°C° 0 mm 1 mps 732 mmHg 76%
    10:00 +30°C° 0 mm 1 mps 732 mmHg 67%
    11:00 +31°C° 0.6 mm 1 mps 732 mmHg 65%
    12:00 +32°C° 0.6 mm 1 mps 731 mmHg 62%
    13:00 +33°C° 0.6 mm 1 mps 730 mmHg 59%
    14:00 +32°C° 0.7 mm 1 mps 730 mmHg 63%
    15:00 +31°C° 0.7 mm 1 mps 730 mmHg 67%
    16:00 +28°C° 0.7 mm 0 mps 729 mmHg 71%
    17:00 +29°C° 0.9 mm 1 mps 730 mmHg 78%
    18:00 +27°C° 0.9 mm 1 mps 730 mmHg 84%
    19:00 +25°C° 0.9 mm 1 mps 731 mmHg 91%
    20:00 +25°C° 2.2 mm 1 mps 731 mmHg 92%
    21:00 +25°C° 2.2 mm 1 mps 731 mmHg 94%
    22:00 +24°C° 2.2 mm 1 mps 732 mmHg 96%
    23:00 +24°C° 0.2 mm 1 mps 731 mmHg 96%
    Show more